Year,Month,Day,Hour,Minute,Value (Times are PST for temperature in C)
2011,01,13,11,22,8.60
2011,01,13,11,23,8.60
2011,01,13,11,24,8.70
2011,01,13,11,25,8.70
2011,01,13,11,26,8.70
2011,01,13,11,27,8.70
2011,01,13,11,28,8.70
2011,01,13,11,29,8.70
2011,01,13,11,30,8.70
2011,01,13,11,31,8.70
2011,01,13,11,32,8.70
2011,01,13,11,33,8.70
2011,01,13,11,34,8.70
2011,01,13,11,35,8.70
2011,01,13,11,36,8.70
2011,01,13,11,37,8.70
2011,01,13,11,38,8.70
2011,01,13,11,39,8.70
2011,01,13,11,40,8.70
2011,01,13,11,41,8.70
2011,01,13,11,42,8.70
2011,01,13,11,43,8.70
2011,01,13,11,44,8.70
2011,01,13,11,45,8.70
2011,01,13,11,46,8.70
2011,01,13,11,47,8.70
2011,01,13,11,48,8.70
2011,01,13,11,49,8.70
2011,01,13,11,50,8.70
2011,01,13,11,51,8.70
2011,01,13,11,52,8.70
2011,01,13,11,53,8.70
2011,01,13,11,54,8.70
2011,01,13,11,55,8.70
2011,01,13,11,56,8.70
2011,01,13,11,57,8.70
2011,01,13,11,58,8.70
2011,01,13,11,59,8.70
2011,01,13,12,00,8.70
2011,01,13,12,01,8.70
2011,01,13,12,02,8.70
2011,01,13,12,03,8.70
2011,01,13,14,35,8.20
2011,01,13,14,36,8.20
2011,01,13,14,37,8.20
2011,01,13,14,38,8.20
2011,01,13,14,39,8.20
2011,01,13,14,40,8.20
2011,01,13,14,41,8.20
2011,01,13,14,42,8.20
2011,01,13,14,43,8.20
2011,01,13,14,44,8.20
2011,01,13,14,45,8.20
2011,01,13,14,46,8.20
2011,01,13,14,47,8.20
2011,01,13,14,48,8.20
2011,01,13,14,49,8.20
2011,01,13,14,50,8.20
2011,01,13,14,51,8.20
2011,01,13,14,52,8.20
2011,01,13,14,53,8.20
2011,01,13,14,54,8.20
2011,01,13,14,55,8.20
2011,01,13,14,56,8.20
2011,01,13,14,57,8.20
2011,01,13,14,58,8.20
2011,01,13,14,59,8.20
2011,01,13,15,00,8.20
2011,01,13,15,01,8.20
2011,01,13,15,02,8.20
2011,01,13,15,03,8.20
2011,01,13,15,04,8.20
2011,01,13,15,05,8.20
2011,01,13,15,06,8.20
2011,01,13,15,07,8.20
2011,01,13,15,08,8.20
2011,01,13,15,09,8.10
2011,01,13,15,10,8.10
2011,01,13,15,11,8.10
2011,01,13,15,12,8.10
2011,01,13,15,13,8.10
2011,01,13,15,14,8.10
2011,01,13,15,15,8.10
2011,01,13,15,16,8.10
2011,01,13,15,17,8.10
2011,01,13,15,18,8.10
2011,01,13,15,19,8.10
2011,01,13,15,20,8.10
2011,01,13,15,21,8.10
2011,01,13,15,22,8.10
2011,01,13,15,23,8.10
2011,01,13,15,24,8.10
2011,01,13,15,25,8.10
2011,01,13,15,26,8.10
2011,01,13,15,27,8.10
2011,01,13,15,28,8.20
2011,01,13,15,29,8.20
2011,01,13,15,30,8.20
2011,01,13,15,31,8.20
2011,01,13,15,32,8.20
2011,01,13,15,33,8.20
2011,01,13,15,34,8.20
2011,01,13,15,35,8.20
2011,01,13,15,36,8.20
2011,01,13,15,37,8.20
2011,01,13,15,38,8.20
2011,01,13,15,39,8.20
2011,01,13,15,40,8.20
2011,01,13,15,41,8.30
2011,01,13,15,42,8.30
2011,01,13,15,43,8.30
2011,01,13,15,44,8.40
2011,01,13,15,45,8.40
2011,01,13,15,46,8.40
2011,01,13,15,47,8.40
2011,01,13,15,48,8.50
2011,01,13,15,49,8.50
2011,01,13,15,50,8.50
2011,01,13,15,51,8.50
2011,01,13,15,52,8.50
2011,01,13,15,53,8.50
2011,01,13,15,54,8.50
2011,01,13,15,55,8.60
2011,01,13,15,56,8.60
2011,01,13,15,57,8.60
2011,01,13,15,58,8.60
2011,01,13,15,59,8.60
2011,01,13,16,00,8.60
2011,01,13,16,01,8.60
2011,01,13,16,02,8.60
2011,01,13,16,03,8.60
2011,01,13,16,04,8.60
2011,01,13,16,05,8.70
2011,01,13,16,06,8.70
2011,01,13,16,07,8.70
2011,01,13,16,08,8.70
2011,01,13,16,09,8.70
2011,01,13,16,10,8.70
2011,01,13,16,11,8.80
2011,01,13,16,12,8.80
2011,01,13,16,13,8.80
2011,01,13,16,14,8.90
2011,01,13,16,15,8.90
2011,01,13,16,16,9.00
2011,01,13,16,17,9.00
2011,01,13,16,18,9.00
2011,01,13,16,19,9.00
2011,01,13,16,20,9.10
2011,01,13,16,21,9.10
2011,01,13,16,22,9.10
2011,01,13,16,23,9.20
2011,01,13,16,24,9.20
2011,01,13,16,25,9.20
2011,01,13,16,26,9.10
2011,01,13,16,27,9.10
2011,01,13,16,28,9.10
2011,01,13,16,29,9.10
2011,01,13,16,30,9.10
2011,01,13,16,31,9.10
2011,01,13,16,32,9.20
2011,01,13,16,33,9.20
2011,01,13,16,34,9.20
2011,01,13,16,35,9.30
2011,01,13,16,36,9.30
2011,01,13,16,37,9.40
2011,01,13,16,38,9.40
2011,01,13,16,39,9.40
2011,01,13,16,40,9.50
2011,01,13,16,41,9.50
2011,01,13,16,42,9.50
2011,01,13,16,43,9.50
2011,01,13,16,44,9.50
2011,01,13,16,45,9.50
2011,01,13,16,46,9.40
2011,01,13,16,47,9.40
2011,01,13,16,48,9.40
2011,01,13,16,49,9.40
2011,01,13,16,50,9.40
2011,01,13,16,51,9.40
2011,01,13,16,52,9.30
2011,01,13,16,53,9.30
2011,01,13,16,54,9.30
2011,01,13,16,55,9.30
2011,01,13,16,56,9.30
2011,01,13,16,57,9.40
2011,01,13,16,58,9.40
2011,01,13,16,59,9.40
2011,01,13,17,00,9.40
2011,01,13,17,01,9.40
2011,01,13,17,02,9.40
2011,01,13,17,03,9.40
2011,01,13,17,04,9.40
2011,01,13,17,05,9.40
2011,01,13,17,06,9.40
2011,01,13,17,07,9.40
2011,01,13,17,08,9.40
2011,01,13,17,09,9.40
2011,01,13,17,10,9.40
2011,01,13,17,11,9.50
2011,01,13,17,12,9.50
2011,01,13,17,13,9.50
2011,01,13,17,14,9.60
2011,01,13,17,15,9.60
2011,01,13,17,16,9.60
2011,01,13,17,17,9.60
2011,01,13,17,18,9.60
2011,01,13,17,19,9.60
2011,01,13,17,20,9.60
2011,01,13,17,21,9.60
2011,01,13,17,22,9.60
2011,01,13,17,23,9.70
2011,01,13,17,24,9.70
2011,01,13,17,25,9.70
2011,01,13,17,26,9.70
2011,01,13,17,27,9.70
2011,01,13,17,28,9.70
2011,01,13,17,29,9.70
2011,01,13,17,30,9.70
2011,01,13,17,31,9.70
2011,01,13,17,32,9.70
2011,01,13,17,33,9.70
2011,01,13,17,34,9.70
2011,01,13,17,35,9.70
2011,01,13,17,36,9.70
2011,01,13,17,37,9.70
2011,01,13,17,38,9.70
2011,01,13,17,39,9.70
2011,01,13,17,40,9.60
2011,01,13,17,41,9.60
2011,01,13,17,42,9.60
2011,01,13,17,43,9.60
2011,01,13,17,44,9.60
2011,01,13,17,45,9.60
2011,01,13,17,46,9.70
2011,01,13,17,47,9.70
2011,01,13,17,48,9.70
2011,01,13,17,49,9.70
2011,01,13,17,50,9.70
2011,01,13,17,51,9.70
2011,01,13,17,52,9.70
2011,01,13,17,53,9.70
2011,01,13,17,54,9.70
2011,01,13,17,55,9.70
2011,01,13,17,56,9.70
2011,01,13,17,57,9.70
2011,01,13,17,58,9.70
2011,01,13,17,59,9.70
2011,01,13,18,00,9.70
2011,01,13,18,01,9.70
2011,01,13,18,02,9.70
2011,01,13,18,03,9.70
2011,01,13,18,04,9.70
2011,01,13,18,05,9.70
2011,01,13,18,06,9.70
2011,01,13,18,07,9.70
2011,01,13,18,08,9.70
2011,01,13,18,09,9.70
2011,01,13,18,10,9.70
2011,01,13,18,11,9.70
2011,01,13,18,12,9.70
2011,01,13,18,13,9.70
2011,01,13,18,14,9.70
2011,01,13,18,15,9.70
2011,01,13,18,16,9.70
2011,01,13,18,17,9.60
2011,01,13,18,18,9.60
2011,01,13,18,19,9.60
2011,01,13,18,20,9.60
2011,01,13,18,21,9.60
2011,01,13,18,22,9.60
2011,01,13,18,23,9.60
2011,01,13,18,24,9.60
2011,01,13,18,25,9.60
2011,01,13,18,26,9.60
2011,01,13,18,27,9.60
2011,01,13,18,28,9.60
2011,01,13,18,29,9.60
2011,01,13,18,30,9.60
2011,01,13,18,31,9.60
2011,01,13,18,32,9.60
2011,01,13,18,33,9.60
2011,01,13,18,34,9.60
2011,01,13,18,35,9.70
2011,01,13,18,36,9.70
2011,01,13,18,37,9.70
2011,01,13,18,38,9.70
2011,01,13,18,39,9.70
2011,01,13,18,40,9.70
2011,01,13,18,41,9.70
2011,01,13,18,42,9.70
2011,01,13,18,43,9.70
2011,01,13,18,44,9.70
2011,01,13,18,45,9.70
2011,01,13,18,46,9.70
2011,01,13,18,47,9.70
2011,01,13,18,48,9.70
2011,01,13,18,49,9.70
2011,01,13,18,50,9.70
2011,01,13,18,51,9.70
2011,01,13,18,52,9.70
2011,01,13,18,53,9.70
2011,01,13,18,54,9.70
2011,01,13,18,55,9.70
2011,01,13,18,56,9.70
2011,01,13,18,57,9.70
2011,01,13,18,58,9.70
2011,01,13,18,59,9.70
2011,01,13,19,00,9.80
2011,01,13,19,01,9.80
2011,01,13,19,02,9.80
2011,01,13,19,03,9.80
2011,01,13,19,04,9.80
2011,01,13,19,05,9.80
2011,01,13,19,06,9.90
2011,01,13,19,07,9.90
2011,01,13,19,08,9.90
2011,01,13,19,09,9.90
2011,01,13,19,10,9.90
2011,01,13,19,11,9.90
2011,01,13,19,12,9.90
2011,01,13,19,13,9.90
2011,01,13,19,14,9.90
2011,01,13,19,15,9.90
2011,01,13,19,16,9.90
2011,01,13,19,17,9.90
2011,01,13,19,18,9.90
2011,01,13,19,19,9.90
2011,01,13,19,20,9.90
2011,01,13,19,21,9.90
2011,01,13,19,22,9.90
2011,01,13,19,23,9.90
2011,01,13,19,24,9.90
2011,01,13,19,25,10.00
2011,01,13,19,26,10.10
2011,01,13,19,27,10.10
2011,01,13,19,28,10.20
2011,01,13,19,29,10.20
2011,01,13,19,30,10.30
2011,01,13,19,31,10.30
2011,01,13,19,32,10.40
2011,01,13,19,33,10.40
2011,01,13,19,34,10.50
2011,01,13,19,35,10.60
2011,01,13,19,36,10.60
2011,01,13,19,37,10.60
2011,01,13,19,38,10.60
2011,01,13,19,39,10.60
2011,01,13,19,40,10.60
2011,01,13,19,41,10.60
2011,01,13,19,42,10.60
2011,01,13,19,43,10.60
2011,01,13,19,44,10.70
2011,01,13,19,45,10.70
2011,01,13,19,46,10.70
2011,01,13,19,47,10.70
2011,01,13,19,48,10.70
2011,01,13,19,49,10.80
2011,01,13,19,50,10.80
2011,01,13,19,51,10.80
2011,01,13,19,52,10.80
2011,01,13,19,53,10.80
2011,01,13,19,54,10.70
2011,01,13,19,55,10.70
2011,01,13,19,56,10.70
2011,01,13,19,57,10.70
2011,01,13,19,58,10.70
2011,01,13,19,59,10.70
2011,01,13,20,00,10.70
2011,01,13,20,01,10.70
2011,01,13,20,02,10.70
2011,01,13,20,03,10.70
2011,01,13,20,04,10.70
2011,01,13,20,05,10.70
2011,01,13,20,06,10.70
2011,01,13,20,07,10.60
2011,01,13,20,08,10.60
2011,01,13,20,09,10.70
2011,01,13,20,10,10.70
2011,01,13,20,11,10.70
2011,01,13,20,12,10.70
2011,01,13,20,13,10.70
2011,01,13,20,14,10.70
2011,01,13,20,15,10.70
2011,01,13,20,16,10.70
2011,01,13,20,17,10.70
2011,01,13,20,18,10.70
2011,01,13,20,19,10.70
2011,01,13,20,20,10.70
2011,01,13,20,21,10.70
2011,01,13,20,22,10.70
2011,01,13,20,23,10.70
2011,01,13,20,24,10.70
2011,01,13,20,25,10.70
2011,01,13,20,26,10.70
2011,01,13,20,27,10.70
2011,01,13,20,28,10.70
2011,01,13,20,29,10.70
2011,01,13,20,30,10.70
2011,01,13,20,31,10.70
2011,01,13,20,32,10.70
2011,01,13,20,33,10.80
2011,01,13,20,34,10.80
2011,01,13,20,35,10.80
2011,01,13,20,36,10.80
2011,01,13,20,37,10.80
2011,01,13,20,38,10.80
2011,01,13,20,39,10.80
2011,01,13,20,40,10.80
2011,01,13,20,41,10.80
2011,01,13,20,42,10.80
2011,01,13,20,43,10.80
2011,01,13,20,44,10.80
2011,01,13,20,45,10.80
2011,01,13,20,46,10.80
2011,01,13,20,47,10.80
2011,01,13,20,48,10.80
2011,01,13,20,49,10.80
2011,01,13,20,50,10.80
2011,01,13,20,51,10.80
2011,01,13,20,52,10.80
2011,01,13,20,53,10.70
2011,01,13,20,54,10.70
2011,01,13,20,55,10.70
2011,01,13,20,56,10.70
2011,01,13,20,57,10.70
2011,01,13,20,58,10.70
2011,01,13,20,59,10.70
2011,01,13,21,00,10.70
2011,01,13,21,01,10.60
2011,01,13,21,02,10.60
2011,01,13,21,03,10.70
2011,01,13,21,04,10.70
2011,01,13,21,05,10.70
2011,01,13,21,06,10.70
2011,01,13,21,07,10.70
2011,01,13,21,08,10.70
2011,01,13,21,09,10.70
2011,01,13,21,10,10.70
2011,01,13,21,11,10.70
2011,01,13,21,12,10.80
2011,01,13,21,13,10.80
2011,01,13,21,14,10.80
2011,01,13,21,15,10.80
2011,01,13,21,16,10.80
2011,01,13,21,17,10.80
2011,01,13,21,18,10.80
2011,01,13,21,19,10.80
2011,01,13,21,20,10.80
2011,01,13,21,21,10.80
2011,01,13,21,22,10.80
2011,01,13,21,23,10.80
2011,01,13,21,24,10.80
2011,01,13,21,25,10.80
2011,01,13,21,26,10.80
2011,01,13,21,27,10.70
2011,01,13,21,28,10.70
2011,01,13,21,29,10.70
2011,01,13,21,30,10.70
2011,01,13,21,31,10.70
2011,01,13,21,32,10.60
2011,01,13,21,33,10.60
2011,01,13,21,34,10.60
2011,01,13,21,35,10.60
2011,01,13,21,36,10.60
2011,01,13,21,37,10.60
2011,01,13,21,38,10.60
2011,01,13,21,39,10.60
2011,01,13,21,40,10.60
2011,01,13,21,41,10.60
2011,01,13,21,42,10.70
2011,01,13,21,43,10.70
2011,01,13,21,44,10.60
2011,01,13,21,45,10.60
2011,01,13,21,46,10.60
2011,01,13,21,47,10.60
2011,01,13,21,48,10.60
2011,01,13,21,49,10.60
2011,01,13,21,50,10.60
2011,01,13,21,51,10.70
2011,01,13,21,52,10.70
2011,01,13,21,53,10.60
2011,01,13,21,54,10.60
2011,01,13,21,55,10.60
2011,01,13,21,56,10.60
2011,01,13,21,57,10.60
2011,01,13,21,58,10.60
2011,01,13,21,59,10.60
2011,01,13,22,00,10.60
2011,01,13,22,01,10.60
2011,01,13,22,02,10.60
2011,01,13,22,03,10.60
2011,01,13,22,04,10.60
2011,01,13,22,05,10.60
2011,01,13,22,06,10.60
2011,01,13,22,07,10.60
2011,01,13,22,08,10.60
2011,01,13,22,09,10.60
2011,01,13,22,10,10.60
2011,01,13,22,11,10.60
2011,01,13,22,12,10.60
2011,01,13,22,13,10.60
2011,01,13,22,14,10.60
2011,01,13,22,15,10.60
2011,01,13,22,16,10.60
2011,01,13,22,17,10.60
2011,01,13,22,18,10.60
2011,01,13,22,19,10.60
2011,01,13,22,20,10.60
2011,01,13,22,21,10.60
2011,01,13,22,22,10.60
2011,01,13,22,23,10.60
2011,01,13,22,24,10.60
2011,01,13,22,25,10.60
2011,01,13,22,26,10.60
2011,01,13,22,27,10.60
2011,01,13,22,28,10.60
2011,01,13,22,29,10.40
2011,01,13,22,30,10.40
2011,01,13,22,31,10.40
2011,01,13,22,32,10.50
2011,01,13,22,33,10.60
2011,01,13,22,34,10.60
2011,01,13,22,35,10.60
2011,01,13,22,36,10.60
2011,01,13,22,37,10.60
2011,01,13,22,38,10.60
2011,01,13,22,39,10.60
2011,01,13,22,40,10.60
2011,01,13,22,41,10.60
2011,01,13,22,42,10.60
2011,01,13,22,43,10.60
2011,01,13,22,44,10.60
2011,01,13,22,45,10.60
2011,01,13,22,46,10.60
2011,01,13,22,47,10.60
2011,01,13,22,48,10.60
2011,01,13,22,49,10.60
2011,01,13,22,50,10.60
2011,01,13,22,51,10.60
2011,01,13,22,52,10.60
2011,01,13,22,53,10.60
2011,01,13,22,54,10.60
2011,01,13,22,55,10.60
2011,01,13,22,56,10.60
2011,01,13,22,57,10.60
2011,01,13,22,58,10.60
2011,01,13,22,59,10.60
2011,01,13,23,00,10.60
2011,01,13,23,01,10.60
2011,01,13,23,02,10.60
2011,01,13,23,03,10.60
2011,01,13,23,04,10.60
2011,01,13,23,05,10.60
2011,01,13,23,06,10.60
2011,01,13,23,07,10.60
2011,01,13,23,08,10.60
2011,01,13,23,09,10.60
2011,01,13,23,10,10.60
2011,01,13,23,11,10.60
2011,01,13,23,12,10.60
2011,01,13,23,13,10.60
2011,01,13,23,14,10.60
2011,01,13,23,15,10.60
2011,01,13,23,16,10.60
2011,01,13,23,17,10.60
2011,01,13,23,18,10.60
2011,01,13,23,19,10.60
2011,01,13,23,20,10.60
2011,01,13,23,21,10.60
2011,01,13,23,22,10.60
2011,01,13,23,23,10.60
2011,01,13,23,24,10.60
2011,01,13,23,25,10.60
2011,01,13,23,26,10.60
2011,01,13,23,27,10.60
2011,01,13,23,28,10.60
2011,01,13,23,29,10.60
2011,01,13,23,30,10.60
2011,01,13,23,31,10.60
2011,01,13,23,32,10.60
2011,01,13,23,33,10.60
2011,01,13,23,34,10.60
2011,01,13,23,35,10.60
2011,01,13,23,36,10.60
2011,01,13,23,37,10.60
2011,01,13,23,38,10.70
2011,01,13,23,39,10.70
2011,01,13,23,40,10.70
2011,01,13,23,41,10.70
2011,01,13,23,42,10.70
2011,01,13,23,43,10.70
2011,01,13,23,44,10.70
2011,01,13,23,45,10.70
2011,01,13,23,46,10.70
2011,01,13,23,47,10.70
2011,01,13,23,48,10.70
2011,01,13,23,49,10.70
2011,01,13,23,50,10.70
2011,01,13,23,51,10.70
2011,01,13,23,52,10.70
2011,01,13,23,53,10.70
2011,01,13,23,54,10.70
2011,01,13,23,55,10.70
2011,01,13,23,56,10.70
2011,01,13,23,57,10.70
2011,01,13,23,58,10.70
2011,01,13,23,59,10.70
